Location: Atlanta
(33.7490°N, 84.3880°W)
Time: 21:55:01
(UTC-05:00)

Daily predictions for brighter satellites

Satellite Brightness Start Highest point End
(mag) Time Altitude Azimuth Time Altitude Azimuth Time Altitude Azimuth
CZ-3B DEB 1.9 17:49:36 10° WSW 17:52:27 60° NW 17:59:19 10° NE
Cosmos 2366 rocket 4.4 17:47:01 10° N 17:53:01 43° E 17:58:55 10° SSE
Cosmos 2181 Rocket 4.4 17:48:44 10° SSW 17:55:01 72° W 18:01:27 10° N
Delta 2 Rocket 3.9 17:53:04 10° SW 17:56:33 42° SSE 18:00:28 10° E
MSX 4.3 17:51:34 10° SE 17:56:47 37° ENE 18:02:01 10° N
Cosmos 2218 Rocket 4.1 17:51:33 10° N 17:57:42 54° E 18:03:43 10° SSE
CZ-4 R/B 1.4 17:56:46 10° SSE 18:00:57 80° ENE 18:05:07 10° N
Cosmos 2278 Rocket 2.3 17:55:52 10° S 18:01:24 61° ESE 18:06:58 10° NNE
SMAP 3.1 17:57:19 10° SSE 18:01:53 60° ENE 18:06:28 10° N
Thor Agena Rocket 3.7 17:59:06 10° NNE 18:04:20 88° WNW 18:09:36 10° SSW
Cosmos 1238 Rocket 2.0 18:02:20 10° S 18:05:18 67° E 18:08:14 10° NNE
SJ-12 3.8 18:02:07 10° SSE 18:06:12 77° ENE 18:10:18 10° N
OTV 4 0.6 18:04:09 10° WNW 18:07:08 71° SSW 18:10:07 10° ESE
CZ-2C R/B 2.4 18:03:11 10° SSE 18:08:05 73° ENE 18:13:10 10° N
Cosmos 1975 3.5 18:09:23 10° NNE 18:13:03 32° E 18:16:40 10° SE
COSMOS 2406 3.8 18:07:44 10° NNW 18:13:24 64° WSW 18:19:04 10° S
Meteor 1-12 Rocket 4.5 18:08:21 10° N 18:14:00 52° E 18:19:44 10° SSE
MOS 1 4.3 18:09:10 10° SSE 18:14:49 89° E 18:20:31 10° NNW
Cosmos 2251 Rocket 3.6 18:09:57 10° N 18:15:15 59° ENE 18:20:28 10° SSE
SL-27 R/B 2.6 18:18:06 10° NNW 18:21:46 85° WSW 18:25:22 10° SSE
Cosmos 1484 Rocket 3.1 18:23:45 10° SE 18:27:18 40° ENE 18:30:49 10° N
Cosmos 2082 Rocket 3.3 18:26:17 10° N 18:30:36 22° ENE 18:33:41 15° E
NOSS 2-1 (D) 4.1 18:28:18 10° S 18:31:44 32° ESE 18:33:30 21° ENE
Cosmos 1833 Rocket 3.9 18:28:14 10° NNE 18:32:10 19° ENE 18:33:05 18° ENE
NOSS 2-1 (C) 4.1 18:29:00 10° S 18:32:26 31° ESE 18:34:10 22° ENE
Cosmos 1743 4.5 18:35:16 16° ESE 18:35:16 16° ESE 18:36:33 10° SE
Cosmos 1544 Rocket 4.5 18:34:45 10° NNW 18:39:05 52° W 18:43:25 10° S
COSMO-SKYMED 1 2.5 18:35:51 10° NNE 18:40:13 80° ESE 18:44:33 10° S
Cosmos 1500 3.1 18:39:26 10° N 18:43:15 62° E 18:47:02 10° SSE
GRACE-2 3.8 18:43:25 10° SSE 18:46:09 55° E 18:46:42 44° NE
Nadezhda 3 Rocket 3.9 18:40:09 10° S 18:46:17 70° E 18:52:29 10° N
GRACE-1 3.8 18:43:49 10° SSE 18:46:34 57° E 18:47:13 42° NNE
Meteor 1-28 Rocket 3.3 18:45:29 21° NNE 18:47:48 52° E 18:51:29 10° S
SL-24 R/B - RUBIN 2 4.5 18:42:40 10° SSW 18:48:49 89° WNW 18:54:43 14° NNE
NOSS 2-1 (E) 3.5 18:47:14 10° SSW 18:50:57 49° ESE 18:52:08 35° ENE
Timation 1 Rocket 4.3 18:45:14 10° S 18:51:04 62° ESE 18:55:27 18° NNE
Meteor 2-4 Rocket 4.0 18:51:14 10° SSE 18:56:16 40° E 18:58:30 27° NE
GEOS 3 Rocket 3.9 18:53:31 23° ESE 18:56:17 42° NE 19:01:04 10° NNW
Meteor 2-14 Rocket 4.5 18:50:38 10° N 18:56:39 55° E 19:02:38 10° SSE
Tiangong 1 1.7 18:53:57 10° W 18:56:51 42° NNW 18:57:12 40° N
OAO 1 4.5 18:53:25 10° W 18:58:54 78° N 19:01:18 35° E
Cosmos 2056 Rocket 4.2 18:55:35 10° SSE 19:00:22 33° E 19:00:49 33° E
Cosmos 1025 Rocket 3.1 19:02:45 10° S 19:06:58 52° E 19:07:27 50° ENE
ATLAS 3B CENTAUR R/B 3.7 18:51:48 10° WSW 19:11:40 65° S 19:15:58 29° ESE
Cosmos 921 Rocket 3.0 19:08:22 10° SSW 19:12:34 75° WNW 19:14:34 31° N
COSMOS 2487 2.4 19:09:44 10° NNW 19:13:00 72° N 19:13:00 72° N
Cosmos 1624 Rocket 4.1 19:09:09 10° S 19:14:07 49° ESE 19:14:32 48° E
Meteor 2-21 Rocket 4.4 19:09:01 10° N 19:15:14 90° E 19:21:22 10° S
Cosmos 1346 Rocket 4.5 19:13:24 10° SW 19:16:56 32° WNW 19:20:27 10° NNW
Cosmos 375 4.1 19:13:06 10° NNW 19:17:14 89° NE 19:17:40 69° SE
Cosmos 1371 Rocket 3.9 19:13:11 10° S 19:18:29 71° ESE 19:20:09 44° NE
Meteor 2-16 Rocket 4.3 19:13:17 10° N 19:19:23 79° E 19:25:27 10° S
Okean 1-7 Rocket 4.5 19:24:30 10° SSW 19:28:52 49° W 19:32:12 17° N
Intercosmos 25 4.3 19:33:02 37° SW 19:33:02 37° SW 19:35:42 10° SSW
ATLAS 2AS CENTAUR R/B 4.2 19:31:22 10° NW 19:38:34 40° WSW 19:45:15 10° S
Delta 2 Rocket 4.0 19:34:58 10° W 19:38:04 52° WNW 19:38:04 52° WNW
OTV 4 3.7 19:41:54 10° WSW 19:42:43 12° SW 19:42:43 12° SW
Cosmos 1934 Rocket 3.9 19:41:46 10° N 19:48:00 90° W 19:54:18 10° S
Cosmos 2082 Rocket 3.1 20:09:29 10° NW 20:14:51 45° WSW 20:15:50 41° SW
Cosmos 1833 Rocket 3.7 20:10:55 10° NNW 20:14:56 41° WNW 20:14:56 41° WNW
FALCON 9 R/B 4.4 21:09:09 10° W 21:15:38 30° W 21:15:38 30° W
